Regional Weather Roundup
Issued by NWS

Home | Current Version | Previous Version | Text Only | Print | Product List | Glossary On
Versions: 1 2 3 4 5 6 7 8 9 10 11 12 13 14 15 16 17 18 19 20 21 22 23 24 25 26 27 28 29
000
ASUS43 KDMX 211307
RWRIA

WEATHER ROUNDUP FOR IOWA
NATIONAL WEATHER SERVICE DES MOINES IA
800 AM CDT TUE OCT 21 2014

NOTE: "FAIR" INDICATES FEW OR NO CLOUDS BELOW 12,000 FEET WITH NO
SIGNIFICANT WEATHER AND/OR OBSTRUCTIONS TO VISIBILITY.

* - THESE STATIONS ARE NOT NWS STATIONS...THUS NOT UNDER NWS
QUALITY CONTROL.  THEY ALSO DO NOT REPORT WEATHER SUCH
AS PRECIPITATION OR FOG.

IAZ001>003-012>014-020>022-031>034-043>046-211400-
   NORTHWEST IOWA

CITY           SKY/WX    TMP DP  RH WIND       PRES   REMARKS
CARROLL *      CLEAR     34  34 100 CALM      30.12F
CHEROKEE *     CLEAR     36  36 100 CALM      30.13R
DENISON *      CLEAR     36  36 100 CALM      30.11R
LE MARS *      CLEAR     34  34 100 CALM      30.11S
ORANGE CITY *  CLEAR     45  37  76 E3        30.11S
SHELDON *      CLEAR     39  36  87 E6        30.10S WCI  35
SIOUX CITY     CLEAR     39  36  89 SE5       30.11S
SPENCER        CLEAR     33  29  85 E3        30.13R
STORM LAKE *   CLEAR     39  36  87 SE6       30.13S WCI  35
$$

IAZ055>058-069>071-079>083-090>094-211400-
   SOUTHWEST IOWA

CITY           SKY/WX    TMP DP  RH WIND       PRES   REMARKS
ATLANTIC *     CLEAR     34  34 100 N3        30.12S
AUDUBON *      CLEAR     36  30  80 CALM      30.13S
CLARINDA *     CLEAR     34  34 100 CALM      30.14S
COUNCIL BLFS * CLEAR     46  41  81 E5        30.10S
CRESTON *      CLEAR     43  37  81 CALM      30.12S
HARLAN  *      CLEAR     36  36 100 CALM      30.15S
LAMONI         CLEAR     46  39  76 NE5       30.12R
RED OAK *      CLEAR     36  34  93 CALM      30.13R
SHENANDOAH *   CLEAR     36  36 100 NE3       30.13S
$$

IAZ047>049-059>061-072>074-084-211400-
   CENTRAL IOWA

CITY           SKY/WX    TMP DP  RH WIND       PRES   REMARKS
AMES           CLEAR     35  33  92 N3        30.13S
ANKENY *       CLEAR     37  37 100 CALM      30.13S
CHARITON *     CLEAR     41  39  93 CALM      30.13R
DES MOINES     CLEAR     46  40  79 E3        30.13R
GRINNELL*      CLEAR     39  37  93 E6        30.15R WCI  35
KNOXVILLE *    CLEAR     43  39  87 E6        30.12R
MARSHALLTOWN   CLEAR     38  36  92 E3        30.14R
PELLA *        CLEAR     43  41  93 E3        30.15R
PERRY *          N/A     36  36 100 CALM      30.13S
$$

IAZ004>006-015-016-023>025-035-036-211400-
   NORTH CENTRAL IOWA

CITY           SKY/WX    TMP DP  RH WIND       PRES   REMARKS
ALGONA *       CLEAR     36  36 100 E6        30.14S FOG     WCI  31
CLARION *      CLEAR     39  39 100 E8        30.14R WCI  34
ESTHERVILLE    CLEAR     32  30  92 E3        30.13S FOG
FORT DODGE *   CLEAR     36  32  87 E3        30.14S
MASON CITY     CLEAR     32  31  96 NE3       30.17R FOG
FOREST CITY *  CLEAR     34  34 100 E3        30.15S
IOWA FALLS *     N/A     37  36  93 CALM      30.16R
$$

IAZ007>011-017>019-026>030-037>042-050>054-066-211400-
   NORTHEAST IOWA

CITY           SKY/WX    TMP DP  RH WIND       PRES   REMARKS
CEDAR RAPIDS   CLEAR     37  36  96 CALM      30.15R
CHARLES CITY * CLEAR     37  36  93 CALM      30.18R
CLINTON *      CLEAR     37  34  87 N7        30.19R WCI  32
DECORAH *      CLEAR     37  37 100 E5        30.17R WCI  34
DUBUQUE        CLEAR     39  37  92 N6        30.17R WCI  35
MONTICELLO *   CLEAR     34  34 100 CALM      30.17R
OELWEIN *      CLEAR     36  36 100 NE6       30.17R WCI  31
WATERLOO       CLEAR     33  31  92 CALM      30.16R
$$

IAZ064-065-067-068-078-211400-
   EAST CENTRAL IOWA

CITY           SKY/WX    TMP DP  RH WIND       PRES   REMARKS
DAVENPORT      CLEAR     38  35  89 NE7       30.16R WCI  33
IOWA CITY      CLEAR     39  39 100 CALM      30.17R
MT. PLEASANT * CLEAR     37  37 100 NE3       30.15R FOG
MUSCATINE *    CLEAR     39  37  93 CALM      30.17R
QUAD CITIES    CLEAR     38  37  97 CALM      30.16R FOG
$$

IAZ062-063-075>077-085>089-095>099-211400-
   SOUTHEAST IOWA

CITY           SKY/WX    TMP DP  RH WIND       PRES   REMARKS
BURLINGTON     CLEAR     43  41  93 NE5       30.15R
FAIRFIELD *      N/A     39  37  93 NE6       30.15R WCI  35
FORT MADISON * CLEAR     45  43  93 NE3       30.15R
KEOKUK *       CLEAR     45  43  93 NE5       30.14R
OSKALOOSA *      N/A     39  37  93 E7        30.15R WCI  34
CENTERVILLE *  CLEAR     39  39 100 N3        30.14R
OTTUMWA        CLEAR     41  38  89 E7        30.14R
WASHINGTON *   CLEAR     41  41 100 NE7       30.16R
$$

ABBREVIATIONS USED IN REMARKS
   TC - TEMPERATURES IN CELSIUS
  WCI - WIND CHILL INDEX
   HX - HEAT INDEX
  VSB - VISIBILITY
$$




USA.gov is the U.S. government's official web portal to all federal, state and local government web resources and services.